Wind_Speed
15 14 14 15 16 15 14 13 12 13 13 13 14 15 16 16 17 17 18 20 20 20 20 20 20 20 21 22 23 24 25 25 25 25 25 26 27 28 28 29 29 29
15 15 15 15 15 14 13 12 13 13 14 14 15 16 17 17 18 18 19 21 22 23 23 23 24 24 24 25 25 25 26 27 28 28 29 29 31 32 32 31 30 31
15 15 15 15 14 13 13 13 14 14 15 16 17 17 18 18 19 20 20 22 24 24 26 27 28 28 28 28 29 28 28 28 29 31 31 31 32 33 34 34 33 32
16 16 15 14 14 13 13 14 15 16 16 16 17 18 18 18 19 20 21 23 25 26 27 29 30 31 31 32 32 32 31 31 32 34 34 34 33 33 34 35 35 34
16 15 15 14 14 14 14 15 16 17 18 18 18 19 20 21 21 22 23 25 27 28 29 31 31 31 32 34 35 35 35 35 34 36 37 36 36 34 33 34 35 35
16 15 15 15 14 15 15 16 17 18 20 20 20 21 23 23 24 25 26 29 30 30 32 33 35 36 36 36 38 39 39 38 37 38 40 41 40 38 36 35 35 37
16 16 15 15 14 15 15 17 19 20 22 22 22 23 24 25 27 28 28 30 32 32 33 34 36 38 36 36 37 39 39 38 38 40 42 43 43 42 41 39 38 38
17 16 15 15 15 15 16 19 21 22 22 22 22 24 25 26 29 29 29 33 37 37 36 36 35 34 34 35 37 37 36 36 39 41 42 43 44 45 47 47 45 42
16 15 15 15 16 17 19 20 21 22 21 22 25 27 27 28 30 31 33 36 38 37 36 34 33 32 33 35 36 36 36 37 39 40 41 43 44 46 48 51 52 48
15 14 15 16 18 18 18 19 20 21 22 24 28 30 30 30 31 31 32 33 32 31 31 30 30 32 33 35 35 35 37 38 39 40 41 42 44 46 47 49 53 53
14 14 16 18 19 17 16 17 19 20 21 24 26 26 26 27 27 26 27 29 29 30 31 31 32 33 34 35 36 37 38 39 39 40 40 42 45 47 48 50 54 54
14 16 18 18 18 15 14 15 18 20 21 23 22 21 22 23 25 27 29 31 32 33 33 33 33 34 35 35 35 36 37 38 39 38 40 44 46 47 50 54 57 54
17 18 18 17 16 15 14 15 18 20 21 23 23 23 24 26 29 31 33 35 36 36 36 36 35 35 33 32 32 33 35 36 37 37 38 41 41 43 49 53 55 53
18 19 18 18 17 16 15 15 18 20 20 22 24 26 28 29 31 33 34 36 37 38 38 37 37 37 33 30 30 32 33 34 34 34 35 36 37 39 43 46 48 50
19 18 18 18 17 17 16 16 18 19 20 22 25 28 30 32 33 35 36 37 37 39 39 37 37 36 31 28 29 31 33 33 33 32 33 36 37 38 39 40 41 43
18 18 18 18 18 19 19 19 20 22 23 24 26 28 31 33 34 36 38 38 37 37 37 35 32 28 25 27 30 31 32 33 33 33 33 37 40 39 39 41 39 39
17 17 18 18 19 20 21 22 23 25 26 27 28 30 32 34 35 38 40 39 37 36 36 32 28 25 25 29 30 30 32 34 34 34 34 36 39 39 40 42 40 37
16 17 18 19 20 21 22 23 25 26 27 29 31 33 35 36 39 41 41 39 36 35 34 31 29 27 28 29 28 29 32 33 34 35 34 35 40 41 40 41 41 37
19 20 21 21 22 23 24 25 26 28 30 32 34 36 38 40 43 44 43 40 37 34 32 31 30 27 27 28 28 29 30 31 34 34 32 35 42 43 40 40 40 38
23 24 25 25 26 26 27 28 29 32 34 36 38 40 43 45 47 47 44 41 38 34 32 32 31 28 27 28 29 30 30 31 33 33 32 36 42 43 41 39 39 38
26 27 28 29 30 31 31 32 33 35 37 40 42 45 48 50 50 48 47 44 41 37 34 33 31 29 28 28 29 30 31 31 31 31 33 36 39 40 40 38 38 38
29 30 31 32 33 34 35 36 37 38 41 43 46 49 52 53 51 50 49 47 44 40 37 34 31 29 28 29 30 30 30 30 30 31 33 36 38 39 39 38 37 38
32 33 34 35 36 37 38 38 39 41 43 46 49 52 54 54 53 52 52 49 46 42 38 33 31 30 30 29 29 30 29 30 31 32 34 36 39 40 40 39 38 37
35 36 38 38 38 39 40 41 41 43 44 47 50 53 55 56 55 56 53 49 45 41 35 32 30 29 29 29 29 29 30 31 32 33 35 37 39 41 41 40 38 36
38 39 41 41 41 42 43 43 44 45 46 48 49 52 55 56 57 57 52 46 42 37 32 30 30 28 27 29 29 30 31 32 33 34 35 36 39 40 40 39 36 34
42 42 43 44 44 45 45 46 47 47 48 49 49 50 54 56 56 54 48 42 38 34 30 29 29 28 28 29 30 31 32 33 34 35 37 37 38 39 39 38 35 32
Wind_Direction
254 256 258 260 263 268 272 277 282 285 287 291 295 298 302 305 305 302 300 301 303 304 303 303 304 305 306 306 306 305 302 297 294 292 292 292 293 291 288 284 280 279
249 250 252 255 260 265 271 278 286 291 295 297 299 300 302 303 302 300 299 301 304 305 305 305 305 306 306 304 302 302 301 299 296 295 294 294 294 293 290 286 283 281
245 246 248 252 258 263 271 280 286 291 295 297 297 297 298 299 298 296 297 300 301 303 305 304 303 303 304 303 300 298 296 295 294 292 291 291 290 289 289 287 285 282
244 246 247 252 259 265 274 281 287 291 292 291 290 291 294 294 293 294 296 298 299 301 303 303 300 298 299 301 301 298 294 293 294 292 290 288 286 285 285 285 284 284
246 247 251 256 262 270 277 283 287 290 288 287 289 293 296 297 298 299 299 300 301 302 303 303 302 300 298 298 298 297 294 291 293 296 294 289 286 284 283 282 282 282
247 249 255 260 266 274 280 283 286 287 287 289 295 300 303 304 305 305 304 303 303 304 305 304 301 299 298 297 297 297 294 289 290 298 298 293 288 285 282 280 279 278
247 251 258 264 270 276 281 283 284 287 291 298 304 307 307 306 306 306 307 310 310 309 308 306 304 301 299 301 302 301 298 292 293 299 300 297 294 290 286 281 280 278
249 255 260 266 272 276 279 281 286 294 303 309 309 305 303 304 305 305 309 314 314 312 308 306 305 303 302 304 307 306 303 298 298 299 299 299 299 297 293 288 284 281
252 257 262 267 271 275 281 287 296 305 308 308 308 306 304 307 308 308 310 314 315 314 313 310 305 302 302 304 306 307 304 302 301 301 300 300 301 300 299 296 291 284
251 256 260 265 271 279 291 301 308 309 305 303 306 307 309 314 315 314 315 317 317 318 320 320 315 309 306 305 307 307 306 304 303 302 301 301 302 303 304 302 296 288
250 254 258 267 279 290 300 304 307 311 311 309 309 311 316 322 323 321 320 320 320 318 319 320 317 312 307 304 305 305 305 304 303 303 303 303 304 305 305 302 295 288
251 256 262 273 285 294 302 304 306 312 318 318 320 324 328 330 330 326 324 323 322 319 317 316 314 310 306 303 301 300 301 302 302 302 302 303 304 305 306 301 291 285
256 261 269 278 283 290 299 303 303 309 319 323 326 328 328 328 327 324 323 323 321 318 315 312 311 311 310 305 298 295 298 301 301 301 301 302 304 306 307 304 292 283
260 268 276 281 286 294 300 303 303 307 316 323 325 325 324 323 322 319 317 318 318 316 312 310 310 311 310 304 296 294 298 300 299 300 302 303 304 304 305 305 295 283
267 275 282 287 297 304 306 309 311 310 312 316 318 319 319 319 318 316 314 313 313 312 309 307 308 307 304 299 296 296 299 299 297 299 302 303 302 300 300 301 296 284
272 280 287 295 303 306 308 314 317 317 318 316 315 314 314 313 314 313 309 307 308 307 304 303 304 304 302 299 298 298 297 296 295 297 299 299 298 298 297 296 295 286
274 284 291 298 301 302 307 313 316 318 319 316 314 313 311 310 311 308 304 302 304 303 301 299 297 297 300 300 299 297 294 293 293 293 295 296 296 295 295 295 294 289
281 290 296 300 300 300 304 310 314 316 315 313 313 312 310 309 307 303 301 301 302 302 299 297 295 295 297 297 297 295 295 295 293 292 296 298 295 293 293 294 293 287
287 293 296 298 299 300 302 307 310 310 311 311 311 310 309 308 306 303 303 303 302 300 298 297 298 298 296 296 297 296 295 295 291 289 293 295 291 290 292 292 287 282
289 293 296 298 300 301 302 303 304 305 306 307 307 307 307 308 307 308 308 306 302 299 298 299 301 299 296 295 297 295 293 291 289 290 291 290 288 288 289 287 281 278
288 293 297 300 302 302 302 302 302 303 304 304 305 305 306 308 309 311 311 307 303 299 298 300 301 296 292 291 291 291 290 290 291 294 294 291 290 290 287 283 279 276
289 293 297 300 301 301 301 300 301 302 303 303 304 305 306 308 311 313 311 306 302 300 301 302 299 292 290 289 289 289 289 289 291 293 294 294 294 293 288 283 279 277
291 293 296 297 297 298 298 298 299 301 301 302 303 303 304 307 310 312 310 304 300 300 302 302 296 289 289 290 289 288 289 290 291 292 294 295 294 292 289 284 281 280
291 292 293 293 293 294 294 295 296 298 299 300 301 301 302 305 308 310 307 301 296 297 299 299 294 287 286 288 288 288 290 292 293 294 296 295 294 292 289 285 284 282
290 290 289 289 290 290 290 292 293 294 295 296 298 300 302 304 307 308 305 297 292 293 294 293 292 288 286 287 288 289 292 294 295 297 297 296 294 291 288 285 284 282
288 287 286 286 287 287 288 290 290 290 291 293 296 300 302 303 306 307 303 294 291 293 292 290 290 289 288 290 292 294 296 297 298 298 298 297 294 288 283 282 280 275
Height
5907 5907 5907 5907 5906 5906 5906 5907 5907 5906 5906 5906 5905 5904 5904 5903 5903 5902 5901 5900 5900 5899 5898 5897 5896 5895 5894 5893 5892 5891 5890 5890 5889 5888 5887 5887 5886 5884 5883 5882 5881 5880
5904 5905 5905 5905 5905 5905 5905 5905 5905 5905 5904 5904 5903 5903 5902 5901 5900 5899 5898 5898 5897 5896 5895 5894 5893 5893 5892 5891 5889 5888 5888 5887 5886 5885 5884 5883 5882 5881 5880 5879 5878 5877
5902 5903 5903 5903 5903 5903 5904 5904 5903 5903 5903 5902 5901 5900 5899 5899 5898 5897 5896 5895 5895 5894 5893 5893 5892 5890 5889 5888 5887 5886 5885 5884 5883 5882 5881 5880 5879 5878 5877 5876 5874 5873
5900 5901 5901 5901 5901 5902 5902 5902 5901 5901 5900 5899 5898 5897 5897 5896 5896 5895 5894 5893 5892 5892 5891 5890 5889 5888 5887 5886 5885 5883 5882 5881 5880 5879 5878 5877 5876 5875 5873 5872 5871 5870
5898 5898 5899 5899 5900 5900 5900 5899 5899 5898 5897 5895 5895 5895 5895 5895 5894 5893 5893 5892 5891 5890 5889 5888 5886 5885 5884 5882 5881 5880 5879 5878 5876 5875 5874 5873 5872 5870 5869 5868 5867 5866
5896 5896 5897 5897 5898 5898 5897 5896 5896 5894 5893 5893 5893 5894 5893 5893 5892 5892 5891 5890 5889 5888 5887 5885 5883 5882 5881 5879 5878 5876 5874 5873 5872 5872 5870 5868 5867 5866 5864 5863 5862 5861
5894 5895 5895 5895 5895 5895 5894 5893 5892 5892 5891 5892 5892 5892 5891 5890 5889 5889 5888 5887 5886 5885 5884 5883 5881 5879 5877 5876 5874 5872 5870 5868 5868 5868 5866 5864 5862 5861 5859 5858 5856 5855
5892 5892 5893 5892 5892 5892 5891 5891 5890 5890 5890 5891 5890 5889 5888 5887 5886 5885 5885 5884 5882 5881 5880 5878 5877 5876 5874 5872 5871 5869 5866 5865 5864 5862 5861 5859 5858 5856 5854 5852 5851 5850
5890 5890 5890 5890 5890 5889 5889 5889 5889 5889 5889 5888 5887 5886 5885 5884 5883 5882 5881 5881 5879 5877 5875 5873 5872 5872 5870 5869 5867 5865 5863 5861 5859 5857 5856 5854 5853 5851 5849 5847 5845 5844
5887 5888 5887 5887 5887 5887 5888 5888 5888 5888 5887 5886 5885 5884 5883 5882 5880 5879 5878 5877 5876 5874 5872 5870 5868 5867 5866 5864 5863 5861 5859 5856 5855 5853 5851 5849 5847 5845 5844 5842 5840 5838
5885 5885 5884 5884 5885 5886 5887 5886 5885 5885 5884 5883 5882 5882 5881 5880 5878 5877 5876 5874 5873 5871 5869 5867 5865 5863 5862 5860 5858 5857 5854 5851 5850 5848 5846 5844 5842 5840 5838 5836 5833 5833
5882 5882 5882 5883 5884 5885 5885 5884 5883 5883 5882 5880 5879 5879 5878 5877 5876 5874 5873 5871 5869 5867 5865 5864 5862 5860 5858 5857 5854 5852 5850 5847 5845 5843 5840 5839 5838 5835 5833 5831 5828 5829
5880 5880 5880 5882 5883 5884 5884 5883 5881 5880 5879 5877 5876 5875 5875 5874 5873 5871 5870 5868 5866 5864 5862 5860 5858 5856 5855 5853 5851 5848 5846 5843 5841 5838 5836 5834 5834 5832 5829 5827 5825 5826
5877 5877 5879 5880 5881 5881 5881 5881 5879 5878 5877 5875 5873 5872 5871 5871 5870 5869 5867 5865 5863 5861 5858 5855 5853 5851 5850 5848 5846 5844 5842 5840 5837 5835 5833 5831 5830 5828 5826 5823 5821 5821
5875 5876 5877 5877 5877 5878 5878 5877 5876 5875 5874 5873 5871 5870 5868 5867 5866 5865 5863 5861 5859 5857 5854 5852 5849 5847 5845 5844 5842 5840 5838 5835 5833 5831 5829 5827 5826 5824 5822 5819 5817 5816
5873 5874 5874 5874 5874 5874 5873 5873 5872 5871 5870 5869 5869 5867 5866 5864 5863 5861 5860 5858 5856 5853 5850 5848 5846 5844 5842 5841 5838 5836 5834 5831 5829 5828 5825 5823 5821 5820 5818 5815 5813 5811
5871 5871 5871 5871 5871 5871 5870 5869 5868 5867 5866 5865 5865 5864 5863 5861 5859 5858 5856 5853 5851 5849 5846 5844 5843 5841 5839 5837 5834 5832 5830 5827 5826 5824 5822 5820 5817 5816 5814 5812 5809 5807
5869 5869 5869 5869 5869 5868 5868 5866 5865 5864 5863 5862 5861 5860 5859 5858 5856 5853 5851 5848 5846 5844 5841 5839 5838 5837 5835 5833 5831 5829 5826 5824 5822 5820 5819 5817 5814 5812 5810 5808 5806 5803
5866 5866 5866 5866 5866 5865 5864 5863 5862 5861 5860 5859 5857 5856 5854 5853 5851 5848 5846 5844 5841 5839 5837 5835 5834 5833 5830 5828 5826 5825 5822 5820 5819 5817 5816 5813 5810 5807 5805 5804 5801 5798
5863 5862 5862 5862 5862 5861 5860 5859 5858 5857 5856 5854 5853 5851 5850 5848 5845 5843 5841 5839 5837 5834 5832 5830 5829 5828 5826 5824 5822 5820 5818 5816 5814 5813 5811 5809 5806 5803 5800 5798 5796 5794
5859 5859 5858 5858 5857 5856 5856 5855 5854 5853 5851 5850 5848 5846 5844 5842 5840 5838 5837 5835 5832 5830 5828 5826 5824 5823 5821 5819 5818 5816 5814 5812 5810 5809 5807 5804 5801 5798 5795 5793 5792 5790
5856 5855 5855 5854 5853 5852 5851 5850 5849 5848 5847 5845 5843 5841 5838 5836 5835 5833 5831 5830 5827 5825 5823 5822 5820 5818 5817 5815 5813 5811 5810 5808 5807 5805 5803 5800 5798 5795 5792 5789 5787 5786
5852 5852 5851 5850 5849 5848 5847 5846 5845 5844 5842 5840 5838 5836 5833 5831 5829 5828 5826 5824 5822 5820 5818 5816 5815 5814 5812 5811 5810 5808 5807 5805 5803 5801 5799 5796 5794 5791 5788 5785 5783 5781
5848 5848 5847 5846 5845 5844 5842 5841 5840 5839 5838 5836 5834 5831 5828 5826 5824 5823 5820 5818 5817 5815 5812 5810 5810 5809 5807 5806 5805 5804 5803 5801 5799 5796 5794 5792 5789 5786 5783 5781 5779 5777
5844 5844 5843 5842 5841 5840 5838 5837 5836 5834 5833 5831 5829 5827 5824 5822 5819 5817 5814 5812 5811 5810 5808 5806 5805 5804 5802 5801 5800 5799 5798 5796 5793 5791 5789 5787 5785 5782 5779 5777 5775 5773
5839 5839 5838 5837 5836 5835 5834 5833 5831 5829 5827 5826 5825 5823 5820 5817 5814 5811 5809 5807 5806 5805 5803 5802 5800 5799 5798 5796 5795 5794 5793 5790 5788 5786 5784 5782 5780 5777 5774 5773 5771 5769